QPF
0.00 0.00 0.01 0.01 0.01 0.01 0.01 0.01 0.02 0.02 0.02 0.03 0.03 0.03 0.03 0.03 0.04 0.05 0.04 0.04 0.04 0.04 0.06 0.08 0.09 0.09 0.06 0.05 0.04 0.04 0.04 0.03 0.01 0.01 0.01 0.02 0.03 0.04 0.05 0.06 0.05 0.05 0.05 0.05
0.00 0.00 0.01 0.02 0.02 0.01 0.01 0.01 0.02 0.02 0.02 0.03 0.03 0.04 0.04 0.04 0.06 0.06 0.04 0.03 0.03 0.05 0.07 0.07 0.08 0.09 0.07 0.07 0.06 0.06 0.06 0.05 0.04 0.03 0.02 0.02 0.02 0.03 0.05 0.06 0.06 0.07 0.07 0.05
0.00 0.00 0.00 0.02 0.02 0.01 0.01 0.01 0.02 0.03 0.04 0.04 0.04 0.06 0.06 0.08 0.09 0.08 0.05 0.04 0.05 0.05 0.06 0.06 0.05 0.05 0.05 0.06 0.05 0.05 0.06 0.05 0.05 0.03 0.02 0.02 0.02 0.03 0.03 0.03 0.04 0.05 0.05 0.06
0.00 0.00 0.01 0.02 0.01 0.01 0.00 0.01 0.01 0.02 0.03 0.02 0.02 0.04 0.06 0.11 0.10 0.07 0.06 0.06 0.08 0.09 0.10 0.10 0.06 0.04 0.03 0.03 0.04 0.03 0.04 0.05 0.05 0.04 0.04 0.04 0.04 0.03 0.02 0.02 0.03 0.04 0.06 0.06
0.00 0.00 0.01 0.01 0.01 0.00 0.00 0.01 0.01 0.01 0.01 0.02 0.05 0.07 0.05 0.05 0.06 0.05 0.06 0.13 0.19 0.21 0.15 0.12 0.08 0.06 0.04 0.03 0.03 0.04 0.03 0.03 0.03 0.04 0.04 0.04 0.04 0.04 0.03 0.03 0.04 0.04 0.05 0.05
0.00 0.00 0.01 0.01 0.01 0.01 0.01 0.02 0.02 0.02 0.02 0.02 0.06 0.06 0.04 0.03 0.02 0.03 0.04 0.10 0.18 0.19 0.17 0.12 0.10 0.09 0.08 0.06 0.06 0.05 0.04 0.03 0.03 0.03 0.03 0.04 0.04 0.04 0.05 0.06 0.08 0.09 0.09 0.09
0.00 0.01 0.01 0.01 0.01 0.01 0.03 0.03 0.02 0.02 0.02 0.03 0.07 0.07 0.05 0.05 0.03 0.02 0.02 0.04 0.08 0.10 0.14 0.11 0.08 0.09 0.12 0.10 0.08 0.07 0.06 0.05 0.04 0.03 0.03 0.03 0.04 0.06 0.09 0.12 0.14 0.14 0.13 0.12
0.01 0.01 0.01 0.01 0.00 0.01 0.02 0.01 0.01 0.01 0.01 0.01 0.06 0.15 0.16 0.12 0.07 0.04 0.03 0.03 0.05 0.10 0.13 0.12 0.13 0.09 0.08 0.10 0.07 0.07 0.06 0.05 0.03 0.04 0.05 0.06 0.08 0.09 0.12 0.16 0.21 0.21 0.15 0.09
0.01 0.02 0.02 0.01 0.01 0.03 0.03 0.02 0.01 0.01 0.01 0.01 0.04 0.10 0.12 0.15 0.12 0.08 0.06 0.05 0.06 0.09 0.14 0.12 0.18 0.15 0.11 0.09 0.07 0.06 0.04 0.03 0.04 0.06 0.07 0.08 0.12 0.15 0.19 0.22 0.21 0.19 0.11 0.08
0.02 0.03 0.03 0.02 0.02 0.05 0.04 0.02 0.02 0.02 0.01 0.00 0.02 0.03 0.06 0.12 0.11 0.07 0.06 0.04 0.04 0.09 0.10 0.10 0.14 0.16 0.12 0.08 0.06 0.06 0.04 0.04 0.05 0.08 0.10 0.12 0.17 0.20 0.21 0.20 0.16 0.13 0.11 0.09
0.04 0.06 0.06 0.05 0.02 0.01 0.01 0.00 0.01 0.01 0.01 0.00 0.01 0.01 0.03 0.05 0.07 0.08 0.08 0.03 0.03 0.03 0.04 0.05 0.06 0.07 0.05 0.04 0.04 0.04 0.03 0.03 0.06 0.09 0.12 0.14 0.13 0.13 0.12 0.11 0.09 0.07 0.06 0.05
0.05 0.05 0.03 0.02 0.01 0.01 0.01 0.01 0.01 0.01 0.01 0.01 0.01 0.01 0.02 0.03 0.02 0.06 0.09 0.03 0.02 0.02 0.03 0.04 0.05 0.06 0.05 0.04 0.03 0.03 0.03 0.04 0.04 0.05 0.07 0.09 0.09 0.08 0.08 0.06 0.06 0.05 0.04 0.04
0.03 0.03 0.02 0.03 0.03 0.01 0.01 0.01 0.01 0.01 0.01 0.01 0.01 0.02 0.02 0.02 0.02 0.03 0.04 0.04 0.05 0.04 0.04 0.04 0.04 0.05 0.05 0.04 0.03 0.04 0.03 0.03 0.04 0.04 0.05 0.07 0.09 0.08 0.06 0.04 0.04 0.04 0.04 0.03
0.03 0.05 0.05 0.06 0.08 0.04 0.01 0.01 0.01 0.00 0.01 0.01 0.02 0.02 0.01 0.01 0.01 0.01 0.02 0.04 0.07 0.05 0.02 0.02 0.04 0.05 0.05 0.05 0.04 0.04 0.03 0.03 0.03 0.03 0.03 0.05 0.05 0.03 0.02 0.02 0.02 0.02 0.02 0.01
0.05 0.06 0.05 0.06 0.10 0.08 0.03 0.01 0.01 0.00 0.00 0.01 0.01 0.01 0.01 0.01 0.01 0.01 0.01 0.02 0.05 0.04 0.02 0.02 0.02 0.03 0.04 0.05 0.04 0.04 0.03 0.03 0.03 0.03 0.03 0.02 0.01 0.01 0.01 0.01 0.01 0.02 0.02 0.02
0.03 0.04 0.03 0.05 0.08 0.05 0.03 0.02 0.01 0.01 0.01 0.01 0.01 0.01 0.02 0.02 0.02 0.01 0.01 0.01 0.02 0.02 0.02 0.02 0.02 0.02 0.03 0.03 0.03 0.03 0.03 0.04 0.04 0.04 0.04 0.03 0.03 0.02 0.01 0.01 0.01 0.01 0.02 0.02
0.03 0.04 0.04 0.04 0.03 0.02 0.02 0.02 0.02 0.02 0.02 0.02 0.02 0.03 0.03 0.03 0.03 0.02 0.01 0.01 0.01 0.01 0.01 0.02 0.02 0.02 0.03 0.04 0.04 0.04 0.05 0.06 0.06 0.06 0.06 0.05 0.04 0.02 0.02 0.02 0.02 0.02 0.01 0.01
0.03 0.02 0.03 0.03 0.02 0.01 0.01 0.02 0.02 0.02 0.02 0.02 0.02 0.03 0.05 0.05 0.03 0.02 0.02 0.01 0.01 0.01 0.01 0.01 0.02 0.02 0.02 0.04 0.07 0.07 0.05 0.04 0.04 0.05 0.05 0.04 0.03 0.03 0.02 0.02 0.02 0.01 0.01 0.01
0.02 0.02 0.02 0.02 0.01 0.01 0.01 0.01 0.02 0.02 0.02 0.02 0.02 0.02 0.03 0.04 0.04 0.03 0.02 0.01 0.01 0.01 0.01 0.01 0.02 0.02 0.01 0.02 0.03 0.06 0.07 0.06 0.05 0.05 0.05 0.04 0.03 0.02 0.02 0.02 0.02 0.02 0.01 0.00
0.02 0.02 0.02 0.02 0.01 0.02 0.01 0.01 0.01 0.02 0.02 0.02 0.03 0.04 0.03 0.02 0.03 0.03 0.03 0.02 0.01 0.01 0.01 0.01 0.02 0.02 0.01 0.01 0.02 0.05 0.08 0.08 0.07 0.06 0.05 0.04 0.03 0.02 0.02 0.02 0.02 0.03 0.02 0.02
0.02 0.02 0.02 0.02 0.02 0.02 0.02 0.02 0.02 0.03 0.03 0.04 0.03 0.03 0.03 0.03 0.03 0.03 0.02 0.01 0.01 0.01 0.01 0.01 0.02 0.01 0.01 0.01 0.01 0.03 0.06 0.05 0.05 0.05 0.05 0.03 0.03 0.02 0.02 0.01 0.01 0.01 0.02 0.02
0.03 0.03 0.02 0.02 0.02 0.02 0.02 0.01 0.02 0.03 0.03 0.03 0.03 0.04 0.04 0.03 0.04 0.04 0.02 0.02 0.02 0.02 0.01 0.01 0.01 0.01 0.01 0.01 0.01 0.01 0.02 0.02 0.02 0.03 0.03 0.03 0.03 0.03 0.02 0.01 0.01 0.01 0.01 0.01
0.04 0.03 0.02 0.01 0.02 0.02 0.02 0.02 0.02 0.04 0.03 0.02 0.03 0.03 0.03 0.04 0.03 0.03 0.03 0.03 0.02 0.02 0.02 0.02 0.02 0.02 0.01 0.01 0.01 0.01 0.01 0.01 0.02 0.03 0.04 0.04 0.03 0.03 0.02 0.02 0.02 0.02 0.01 0.01
0.03 0.03 0.02 0.02 0.03 0.02 0.02 0.02 0.03 0.03 0.03 0.03 0.03 0.02 0.02 0.02 0.03 0.02 0.02 0.03 0.02 0.02 0.02 0.02 0.03 0.02 0.01 0.01 0.01 0.01 0.01 0.01 0.02 0.03 0.03 0.03 0.04 0.04 0.04 0.03 0.02 0.02 0.02 0.02
0.03 0.03 0.03 0.03 0.03 0.02 0.02 0.03 0.03 0.04 0.04 0.04 0.05 0.02 0.02 0.02 0.03 0.03 0.02 0.01 0.01 0.02 0.02 0.03 0.03 0.02 0.01 0.01 0.01 0.01 0.01 0.02 0.02 0.03 0.02 0.03 0.04 0.04 0.04 0.03 0.03 0.02 0.02 0.02
0.03 0.03 0.03 0.04 0.04 0.05 0.05 0.05 0.05 0.05 0.05 0.05 0.04 0.03 0.03 0.03 0.04 0.04 0.04 0.04 0.03 0.03 0.03 0.03 0.03 0.02 0.02 0.02 0.01 0.01 0.01 0.01 0.02 0.03 0.03 0.04 0.04 0.04 0.04 0.04 0.03 0.04 0.03 0.03
0.03 0.03 0.04 0.04 0.05 0.05 0.05 0.06 0.05 0.05 0.08 0.08 0.05 0.04 0.05 0.04 0.03 0.03 0.04 0.04 0.04 0.03 0.02 0.02 0.02 0.02 0.01 0.01 0.01 0.01 0.01 0.02 0.02 0.03 0.04 0.04 0.05 0.05 0.04 0.03 0.03 0.03 0.03 0.03
MSLP
1005.66 1006.13 1006.57 1006.97 1007.27 1007.43 1007.43 1007.25 1006.90 1006.42 1005.87 1005.32 1004.86 1004.54 1004.42 1004.50 1004.78 1005.22 1005.77 1006.37 1006.95 1007.50 1007.99 1008.42 1008.83 1009.23 1009.66 1010.12 1010.62 1011.14 1011.66 1012.16 1012.61 1013.00 1013.30 1013.55 1013.74 1013.90 1014.05 1014.19 1014.33 1014.46 1014.57 1014.65
1005.93 1006.30 1006.59 1006.78 1006.84 1006.77 1006.57 1006.25 1005.83 1005.36 1004.90 1004.49 1004.19 1004.05 1004.06 1004.24 1004.56 1004.97 1005.44 1005.93 1006.40 1006.85 1007.27 1007.69 1008.12 1008.59 1009.10 1009.66 1010.26 1010.87 1011.47 1012.02 1012.50 1012.91 1013.23 1013.50 1013.71 1013.90 1014.09 1014.26 1014.44 1014.60 1014.74 1014.84
1006.33 1006.60 1006.74 1006.75 1006.64 1006.40 1006.06 1005.66 1005.22 1004.79 1004.42 1004.13 1003.97 1003.93 1004.02 1004.21 1004.48 1004.80 1005.13 1005.47 1005.80 1006.13 1006.48 1006.87 1007.32 1007.85 1008.45 1009.12 1009.82 1010.53 1011.20 1011.81 1012.33 1012.77 1013.12 1013.41 1013.65 1013.87 1014.09 1014.31 1014.53 1014.73 1014.91 1015.05
1006.91 1007.05 1007.06 1006.94 1006.69 1006.35 1005.94 1005.51 1005.09 1004.73 1004.44 1004.25 1004.17 1004.19 1004.28 1004.42 1004.59 1004.75 1004.91 1005.07 1005.23 1005.43 1005.69 1006.04 1006.51 1007.09 1007.77 1008.53 1009.33 1010.12 1010.87 1011.53 1012.10 1012.57 1012.96 1013.28 1013.56 1013.82 1014.08 1014.35 1014.61 1014.86 1015.08 1015.26
1007.62 1007.64 1007.54 1007.31 1006.99 1006.59 1006.17 1005.76 1005.40 1005.10 1004.90 1004.79 1004.75 1004.77 1004.82 1004.86 1004.89 1004.88 1004.85 1004.81 1004.81 1004.87 1005.04 1005.34 1005.80 1006.41 1007.14 1007.96 1008.83 1009.68 1010.48 1011.20 1011.82 1012.33 1012.76 1013.13 1013.46 1013.77 1014.08 1014.40 1014.71 1015.00 1015.26 1015.47
1008.41 1008.33 1008.13 1007.83 1007.47 1007.07 1006.67 1006.31 1006.01 1005.80 1005.67 1005.61 1005.59 1005.59 1005.57 1005.51 1005.39 1005.21 1005.01 1004.80 1004.64 1004.57 1004.64 1004.88 1005.30 1005.90 1006.63 1007.47 1008.36 1009.24 1010.07 1010.83 1011.48 1012.05 1012.53 1012.96 1013.35 1013.72 1014.09 1014.46 1014.81 1015.13 1015.42 1015.66
1009.20 1009.03 1008.77 1008.44 1008.06 1007.68 1007.33 1007.04 1006.82 1006.68 1006.61 1006.59 1006.58 1006.55 1006.47 1006.31 1006.08 1005.77 1005.42 1005.08 1004.79 1004.61 1004.59 1004.75 1005.10 1005.64 1006.33 1007.12 1007.98 1008.84 1009.66 1010.42 1011.10 1011.71 1012.25 1012.74 1013.21 1013.66 1014.09 1014.51 1014.90 1015.25 1015.56 1015.81
1009.92 1009.69 1009.39 1009.05 1008.70 1008.36 1008.07 1007.85 1007.70 1007.62 1007.60 1007.61 1007.61 1007.56 1007.44 1007.23 1006.92 1006.53 1006.10 1005.67 1005.30 1005.03 1004.92 1004.98 1005.24 1005.66 1006.25 1006.94 1007.70 1008.48 1009.24 1009.97 1010.66 1011.29 1011.89 1012.46 1013.00 1013.53 1014.04 1014.51 1014.94 1015.32 1015.63 1015.88
1010.50 1010.25 1009.95 1009.63 1009.32 1009.03 1008.80 1008.64 1008.55 1008.52 1008.54 1008.57 1008.58 1008.54 1008.41 1008.18 1007.85 1007.45 1006.99 1006.53 1006.12 1005.80 1005.60 1005.56 1005.69 1005.97 1006.39 1006.91 1007.51 1008.16 1008.82 1009.48 1010.14 1010.79 1011.43 1012.06 1012.69 1013.30 1013.88 1014.42 1014.89 1015.29 1015.61 1015.86
1010.93 1010.69 1010.43 1010.15 1009.88 1009.65 1009.48 1009.37 1009.32 1009.33 1009.37 1009.42 1009.44 1009.41 1009.30 1009.10 1008.81 1008.44 1008.02 1007.58 1007.17 1006.82 1006.56 1006.41 1006.39 1006.49 1006.70 1007.01 1007.41 1007.86 1008.37 1008.93 1009.52 1010.16 1010.83 1011.52 1012.22 1012.92 1013.58 1014.18 1014.70 1015.13 1015.47 1015.73
1011.22 1011.03 1010.81 1010.59 1010.38 1010.21 1010.08 1010.00 1009.98 1010.00 1010.05 1010.10 1010.14 1010.14 1010.07 1009.93 1009.71 1009.42 1009.07 1008.70 1008.32 1007.96 1007.65 1007.40 1007.23 1007.13 1007.12 1007.19 1007.34 1007.58 1007.90 1008.31 1008.81 1009.41 1010.08 1010.81 1011.58 1012.35 1013.09 1013.76 1014.35 1014.83 1015.20 1015.49
1011.40 1011.28 1011.13 1010.97 1010.83 1010.70 1010.60 1010.54 1010.52 1010.54 1010.58 1010.63 1010.68 1010.70 1010.67 1010.60 1010.47 1010.28 1010.03 1009.74 1009.42 1009.08 1008.74 1008.40 1008.08 1007.80 1007.56 1007.38 1007.28 1007.29 1007.40 1007.65 1008.03 1008.56 1009.20 1009.95 1010.76 1011.60 1012.41 1013.16 1013.82 1014.37 1014.81 1015.14
1011.54 1011.49 1011.41 1011.32 1011.23 1011.14 1011.07 1011.02 1010.99 1010.99 1011.01 1011.04 1011.07 1011.10 1011.12 1011.10 1011.05 1010.96 1010.81 1010.61 1010.36 1010.04 1009.68 1009.28 1008.84 1008.38 1007.94 1007.54 1007.20 1006.98 1006.89 1006.97 1007.22 1007.65 1008.25 1008.99 1009.83 1010.71 1011.58 1012.41 1013.15 1013.78 1014.30 1014.71
1011.69 1011.69 1011.68 1011.65 1011.61 1011.56 1011.51 1011.46 1011.41 1011.38 1011.36 1011.36 1011.37 1011.39 1011.41 1011.43 1011.43 1011.41 1011.34 1011.22 1011.02 1010.74 1010.37 1009.92 1009.39 1008.81 1008.20 1007.61 1007.08 1006.66 1006.39 1006.31 1006.43 1006.76 1007.30 1008.01 1008.84 1009.75 1010.67 1011.56 1012.38 1013.09 1013.70 1014.21
1011.87 1011.92 1011.96 1011.98 1011.98 1011.97 1011.93 1011.88 1011.82 1011.75 1011.68 1011.63 1011.59 1011.57 1011.58 1011.59 1011.62 1011.62 1011.60 1011.52 1011.36 1011.10 1010.74 1010.26 1009.68 1009.01 1008.30 1007.58 1006.91 1006.34 1005.92 1005.70 1005.71 1005.94 1006.41 1007.07 1007.88 1008.79 1009.74 1010.67 1011.56 1012.35 1013.05 1013.65
1012.08 1012.16 1012.24 1012.31 1012.35 1012.37 1012.35 1012.30 1012.21 1012.11 1011.99 1011.88 1011.78 1011.70 1011.65 1011.62 1011.61 1011.61 1011.58 1011.51 1011.37 1011.12 1010.76 1010.28 1009.68 1008.97 1008.20 1007.42 1006.66 1006.01 1005.50 1005.18 1005.09 1005.24 1005.63 1006.23 1007.01 1007.90 1008.85 1009.81 1010.74 1011.60 1012.37 1013.05
1012.33 1012.42 1012.53 1012.63 1012.70 1012.74 1012.74 1012.69 1012.59 1012.46 1012.29 1012.11 1011.93 1011.77 1011.63 1011.53 1011.45 1011.39 1011.32 1011.22 1011.06 1010.81 1010.45 1009.98 1009.38 1008.69 1007.92 1007.12 1006.35 1005.66 1005.10 1004.74 1004.59 1004.67 1005.00 1005.54 1006.26 1007.11 1008.05 1009.01 1009.96 1010.86 1011.68 1012.42
1012.56 1012.67 1012.79 1012.90 1013.01 1013.07 1013.08 1013.04 1012.93 1012.76 1012.55 1012.30 1012.04 1011.78 1011.55 1011.34 1011.16 1011.01 1010.86 1010.70 1010.49 1010.22 1009.86 1009.40 1008.83 1008.17 1007.45 1006.69 1005.95 1005.28 1004.73 1004.35 1004.18 1004.22 1004.49 1004.98 1005.64 1006.45 1007.35 1008.29 1009.23 1010.14 1010.99 1011.76
1012.76 1012.86 1012.99 1013.12 1013.23 1013.31 1013.33 1013.29 1013.17 1012.97 1012.71 1012.41 1012.07 1011.72 1011.37 1011.05 1010.76 1010.49 1010.25 1010.00 1009.74 1009.43 1009.06 1008.61 1008.09 1007.48 1006.82 1006.14 1005.47 1004.86 1004.35 1004.00 1003.82 1003.85 1004.08 1004.52 1005.13 1005.88 1006.73 1007.63 1008.55 1009.44 1010.29 1011.07
1012.88 1012.98 1013.10 1013.23 1013.35 1013.43 1013.45 1013.39 1013.26 1013.04 1012.75 1012.39 1011.98 1011.54 1011.11 1010.68 1010.27 1009.90 1009.55 1009.22 1008.88 1008.54 1008.15 1007.72 1007.23 1006.69 1006.11 1005.51 1004.92 1004.39 1003.95 1003.64 1003.48 1003.51 1003.71 1004.10 1004.66 1005.35 1006.14 1006.99 1007.87 1008.74 1009.57 1010.35
1012.92 1013.01 1013.11 1013.23 1013.32 1013.39 1013.39 1013.32 1013.17 1012.93 1012.60 1012.21 1011.75 1011.25 1010.74 1010.23 1009.73 1009.27 1008.83 1008.42 1008.02 1007.63 1007.23 1006.80 1006.35 1005.87 1005.36 1004.85 1004.35 1003.90 1003.52 1003.26 1003.12 1003.14 1003.32 1003.67 1004.17 1004.80 1005.53 1006.32 1007.15 1007.98 1008.79 1009.55
1012.87 1012.93 1013.01 1013.09 1013.15 1013.18 1013.15 1013.05 1012.88 1012.61 1012.27 1011.85 1011.37 1010.84 1010.28 1009.72 1009.17 1008.64 1008.14 1007.67 1007.22 1006.80 1006.38 1005.96 1005.54 1005.10 1004.65 1004.21 1003.78 1003.39 1003.07 1002.84 1002.72 1002.72 1002.88 1003.18 1003.61 1004.17 1004.83 1005.57 1006.35 1007.14 1007.92 1008.66
1012.72 1012.75 1012.79 1012.82 1012.83 1012.80 1012.73 1012.59 1012.39 1012.11 1011.76 1011.33 1010.85 1010.31 1009.75 1009.17 1008.60 1008.04 1007.51 1007.00 1006.53 1006.09 1005.66 1005.25 1004.84 1004.43 1004.02 1003.63 1003.25 1002.90 1002.61 1002.39 1002.26 1002.25 1002.35 1002.59 1002.96 1003.44 1004.03 1004.69 1005.41 1006.16 1006.92 1007.65
1012.48 1012.47 1012.45 1012.42 1012.37 1012.28 1012.15 1011.98 1011.75 1011.46 1011.10 1010.69 1010.22 1009.71 1009.16 1008.60 1008.04 1007.48 1006.94 1006.43 1005.95 1005.49 1005.06 1004.65 1004.25 1003.86 1003.48 1003.10 1002.75 1002.42 1002.14 1001.91 1001.76 1001.70 1001.75 1001.91 1002.20 1002.59 1003.09 1003.68 1004.34 1005.04 1005.77 1006.49
1012.14 1012.08 1012.01 1011.91 1011.79 1011.64 1011.46 1011.25 1010.99 1010.69 1010.35 1009.96 1009.52 1009.04 1008.53 1008.00 1007.46 1006.93 1006.40 1005.89 1005.40 1004.94 1004.51 1004.10 1003.70 1003.32 1002.95 1002.60 1002.25 1001.93 1001.64 1001.39 1001.21 1001.09 1001.07 1001.15 1001.34 1001.64 1002.05 1002.55 1003.13 1003.78 1004.47 1005.19
1011.70 1011.59 1011.46 1011.30 1011.11 1010.91 1010.69 1010.44 1010.17 1009.87 1009.54 1009.17 1008.76 1008.32 1007.84 1007.34 1006.83 1006.31 1005.79 1005.28 1004.79 1004.33 1003.89 1003.48 1003.09 1002.71 1002.36 1002.01 1001.68 1001.36 1001.07 1000.81 1000.59 1000.43 1000.34 1000.33 1000.43 1000.63 1000.93 1001.34 1001.84 1002.42 1003.07 1003.77
1011.14 1010.98 1010.80 1010.59 1010.37 1010.12 1009.87 1009.60 1009.32 1009.02 1008.69 1008.34 1007.95 1007.52 1007.06 1006.57 1006.06 1005.53 1005.00 1004.47 1003.97 1003.49 1003.04 1002.62 1002.24 1001.88 1001.54 1001.22 1000.92 1000.63 1000.35 1000.10 999.87 999.68 999.54 999.48 999.49 999.60 999.81 1000.12 1000.53 1001.04 1001.63 1002.30
Thickness
5780 5789 5792 5791 5792 5794 5786 5776 5764 5767 5770 5778 5785 5790 5792 5793 5792 5789 5787 5785 5784 5782 5780 5778 5776 5773 5771 5769 5766 5762 5757 5753 5750 5747 5745 5741 5738 5734 5731 5727 5724 5721 5717 5715
5774 5786 5787 5783 5788 5789 5789 5785 5777 5773 5770 5786 5790 5790 5788 5786 5785 5780 5779 5779 5778 5776 5774 5772 5770 5767 5764 5762 5759 5757 5752 5748 5745 5742 5739 5736 5733 5729 5725 5721 5718 5714 5711 5709
5751 5770 5772 5759 5776 5780 5780 5782 5778 5767 5772 5782 5780 5780 5779 5780 5780 5776 5775 5774 5772 5771 5769 5767 5765 5763 5759 5757 5755 5751 5747 5743 5739 5736 5733 5731 5728 5723 5719 5715 5712 5707 5704 5702
5740 5749 5734 5754 5784 5786 5778 5775 5779 5778 5778 5779 5778 5777 5778 5780 5776 5772 5771 5770 5769 5766 5763 5762 5761 5759 5755 5753 5750 5746 5741 5738 5735 5731 5727 5724 5720 5716 5713 5709 5705 5702 5698 5695
5727 5725 5736 5758 5775 5778 5767 5758 5773 5773 5774 5774 5774 5770 5766 5772 5773 5771 5769 5768 5766 5764 5760 5755 5753 5752 5749 5745 5742 5739 5735 5731 5729 5725 5721 5717 5713 5710 5707 5703 5699 5695 5692 5689
5724 5722 5719 5745 5773 5784 5770 5744 5766 5770 5767 5766 5765 5747 5749 5763 5766 5765 5764 5762 5759 5755 5752 5748 5746 5745 5741 5736 5733 5730 5728 5726 5723 5719 5715 5711 5708 5704 5701 5697 5693 5689 5685 5682
5717 5714 5725 5754 5772 5773 5739 5737 5761 5764 5762 5761 5755 5752 5754 5758 5757 5757 5755 5754 5752 5748 5743 5740 5739 5736 5731 5727 5724 5723 5722 5719 5715 5712 5708 5705 5701 5697 5692 5688 5684 5681 5677 5674
5709 5705 5715 5756 5760 5747 5743 5756 5759 5759 5758 5755 5754 5753 5751 5750 5747 5746 5745 5744 5742 5737 5734 5733 5730 5726 5720 5717 5717 5715 5713 5709 5706 5703 5701 5697 5692 5688 5684 5680 5675 5672 5668 5665
5711 5715 5736 5750 5751 5754 5755 5752 5753 5752 5752 5752 5747 5743 5741 5739 5737 5736 5735 5733 5731 5728 5725 5722 5721 5717 5711 5709 5707 5705 5702 5698 5695 5693 5690 5688 5684 5680 5675 5672 5667 5663 5660 5657
5710 5719 5731 5740 5746 5749 5750 5749 5749 5749 5747 5744 5738 5735 5732 5730 5727 5726 5725 5724 5721 5718 5714 5711 5710 5707 5704 5702 5699 5695 5691 5687 5685 5682 5679 5677 5674 5671 5667 5663 5659 5656 5653 5649
5702 5712 5721 5728 5734 5738 5740 5742 5741 5740 5740 5736 5731 5726 5724 5720 5717 5716 5715 5713 5711 5708 5705 5702 5700 5698 5695 5692 5689 5685 5681 5678 5675 5672 5669 5666 5663 5661 5658 5656 5654 5650 5647 5643
5693 5705 5707 5713 5724 5730 5729 5729 5729 5728 5726 5726 5723 5718 5715 5711 5709 5707 5704 5702 5699 5697 5694 5692 5690 5687 5685 5684 5681 5676 5672 5668 5666 5663 5660 5657 5654 5651 5650 5649 5647 5644 5640 5637
5703 5709 5711 5714 5718 5721 5720 5720 5720 5718 5716 5713 5712 5710 5706 5702 5700 5698 5696 5693 5690 5687 5683 5681 5678 5676 5675 5674 5672 5668 5664 5660 5658 5655 5652 5649 5646 5642 5638 5637 5637 5634 5631 5629
5704 5704 5702 5705 5706 5710 5711 5712 5711 5708 5707 5705 5702 5700 5697 5693 5691 5688 5686 5684 5682 5679 5675 5672 5669 5666 5666 5664 5662 5659 5656 5654 5651 5648 5644 5641 5638 5634 5631 5627 5624 5622 5621 5620
5696 5698 5696 5698 5699 5699 5699 5698 5696 5694 5694 5693 5692 5689 5686 5683 5680 5678 5677 5675 5672 5668 5666 5663 5660 5658 5658 5656 5653 5650 5647 5645 5643 5640 5637 5634 5631 5627 5624 5620 5616 5613 5611 5610
5689 5690 5690 5688 5687 5688 5688 5687 5684 5682 5682 5681 5680 5679 5678 5675 5672 5670 5668 5666 5662 5659 5657 5655 5653 5651 5650 5648 5645 5642 5640 5639 5636 5632 5629 5626 5623 5619 5616 5612 5609 5605 5603 5601
5678 5676 5677 5677 5678 5678 5677 5677 5676 5674 5673 5672 5671 5670 5667 5665 5662 5660 5659 5657 5655 5653 5651 5648 5647 5646 5643 5640 5637 5634 5632 5630 5629 5625 5621 5618 5615 5611 5608 5605 5601 5598 5596 5594
5678 5677 5677 5676 5673 5671 5669 5670 5669 5666 5664 5664 5663 5661 5657 5655 5652 5650 5649 5649 5647 5644 5642 5641 5639 5637 5634 5632 5629 5626 5624 5622 5619 5617 5614 5611 5608 5605 5602 5598 5596 5592 5589 5587
5672 5671 5670 5670 5669 5666 5664 5662 5661 5659 5658 5656 5654 5651 5650 5648 5645 5644 5643 5640 5638 5635 5635 5634 5632 5629 5626 5624 5622 5620 5617 5614 5612 5610 5607 5605 5601 5597 5594 5592 5589 5586 5583 5580
5666 5665 5663 5662 5661 5658 5655 5654 5653 5651 5650 5649 5647 5644 5641 5640 5639 5637 5635 5633 5632 5632 5631 5628 5626 5622 5619 5618 5616 5613 5610 5608 5605 5602 5599 5596 5593 5590 5587 5585 5582 5580 5577 5574
5657 5656 5654 5652 5650 5650 5648 5646 5644 5642 5641 5640 5638 5636 5634 5633 5632 5630 5627 5625 5626 5626 5624 5622 5618 5616 5614 5611 5610 5606 5603 5601 5598 5595 5592 5589 5586 5583 5580 5578 5575 5573 5570 5567
5647 5647 5645 5643 5641 5639 5639 5639 5637 5636 5634 5632 5631 5629 5626 5625 5624 5622 5621 5620 5620 5619 5616 5613 5611 5610 5608 5605 5602 5600 5597 5594 5591 5588 5585 5583 5580 5577 5574 5571 5568 5566 5563 5560
5638 5637 5636 5635 5633 5632 5632 5631 5630 5629 5627 5626 5624 5622 5620 5618 5616 5614 5612 5614 5614 5612 5610 5607 5606 5603 5601 5598 5595 5593 5590 5588 5585 5582 5580 5577 5574 5571 5568 5565 5562 5559 5556 5554
5630 5629 5628 5628 5627 5625 5623 5623 5623 5622 5621 5620 5619 5618 5615 5612 5610 5610 5610 5610 5608 5606 5603 5601 5599 5597 5594 5590 5588 5585 5583 5581 5579 5577 5574 5571 5568 5565 5562 5559 5556 5553 5551 5548
5623 5622 5621 5620 5618 5617 5617 5617 5616 5615 5614 5612 5612 5611 5610 5608 5605 5604 5603 5603 5601 5599 5596 5594 5592 5590 5587 5584 5581 5579 5577 5575 5573 5571 5568 5565 5562 5560 5556 5554 5551 5548 5546 5543
5615 5614 5613 5613 5612 5611 5610 5609 5607 5606 5605 5604 5603 5603 5603 5602 5600 5598 5597 5596 5594 5592 5590 5587 5585 5583 5580 5577 5575 5572 5570 5568 5566 5564 5561 5558 5556 5553 5551 5548 5545 5543 5540 5537
5609 5608 5607 5606 5605 5605 5604 5602 5601 5599 5599 5598 5597 5597 5596 5595 5594 5592 5591 5589 5587 5585 5583 5580 5578 5576 5574 5571 5569 5566 5564 5561 5559 5557 5555 5552 5550 5547 5545 5543 5540 5538 5535 5531